Location: Unspecified
(0.0000°N, 0.0000°E)
Time: 01:33:45
(UTC+02:00)

PROBA 2 - Visible Passes

Search period start: 19 April 2015 00:00
Search period end: 29 April 2015 00:00
Orbit: 708 x 725 km, 98.3° (Epoch: 18 April)

Date Brightness Start Highest point End Pass type
(mag) Time Alt. Az. Time Alt. Az. Time Alt. Az.
20 Apr ? 20:59:47 10° NNW 21:03:52 27° W 21:07:50 10° SW visible
22 Apr ? 20:55:47 10° NNW 21:00:00 30° WNW 21:04:08 10° SW visible
24 Apr ? 20:51:48 10° NNW 20:56:09 34° W 21:00:25 10° SW visible
26 Apr ? 20:47:49 10° N 20:52:16 38° WNW 20:56:40 10° SW visible
28 Apr ? 20:43:52 10° N 20:48:24 42° WNW 20:52:54 10° SSW visible
